Home   Weather   Cupertino   Past weeks

Flag for USA Past Weather in Cupertino, California, USA — Yesterday and Last 2 Weeks

Now
54 °F

Mostly cloudy.


Feels Like: 54 °F
Forecast: 52 / 61 °F
Wind: 3 mph from West

Location: Moffett Field

Current Time: Apr 24, 2017 at 4:58:36 am

Latest Report: Apr 24, 2017 at 4:13 am


Visibility: 10 mi

Pressure: 30.06 "Hg

Humidity: 74%

Dew Point: 46 °F

Location of CupertinoLocation

Past Weather in Cupertino — Graph

°F

Cupertino Temperature Yesterday

Maximum temperature yesterday: 66 °F (at 1:56 pm)
Minimum temperature yesterday: 53 °F (at 1:56 am)
Average temperature yesterday: 59 °F

High & Low Weather Summary for the Past Weeks

 TemperatureHumidityPressure
High76 °F (Apr 21, 3:56 pm)100% (Apr 13, 2:04 am)30.33 "Hg (Apr 13, 2:04 am)
Low39 °F (Apr 9, 6:56 am)22% (Apr 22, 10:56 am)29.92 "Hg (Apr 12, 7:56 pm)
Average58 °F70%30.10 "Hg
* Reported Apr 9 3:56 am — Apr 24 3:43 am, Cupertino, Weather by CustomWeather, © 2017

Note: Actual official high and low records may vary slightly from our data, if they occured in-between our weather recording intervals... More about our weather records

Advertising

Cupertino Weather History for the Previous 24 Hours

Scroll right to see more
 ConditionsComfort  
Time TempWeatherWind HumidityBarometerVisibility
3:43 am
Mon, Apr 24
53 °FPassing clouds.3 mph77%30.05 "Hg10 mi
2:56 am53 °FPassing clouds.3 mph74%30.06 "Hg10 mi
2:18 am53 °FPassing clouds.3 mph77%30.05 "Hg10 mi
1:56 am53 °FClear.7 mph77%30.06 "Hg10 mi
12:56 am53 °FClear.3 mph77%30.06 "Hg10 mi
11:56 pm
Sun, Apr 23
54 °FClear.No wind72%30.06 "Hg10 mi
10:56 pm55 °FClear.3 mph72%30.06 "Hg10 mi
9:56 pm54 °FClear.5 mph74%30.07 "Hg10 mi
8:56 pm56 °FClear.5 mph70%30.05 "Hg10 mi
7:56 pm57 °FClear.9 mph67%30.05 "Hg10 mi
6:56 pm60 °FSunny.8 mph60%30.03 "Hg10 mi
5:56 pm62 °FSunny.12 mph56%30.04 "Hg10 mi
4:56 pm65 °FSunny.10 mph52%30.03 "Hg10 mi
3:56 pm66 °FSunny.10 mph49%30.03 "Hg10 mi
2:56 pm66 °FSunny.13 mph47%30.05 "Hg10 mi
1:56 pm66 °FSunny.10 mph47%30.04 "Hg10 mi
12:56 pm65 °FSunny.10 mph51%30.05 "Hg10 mi
11:56 am65 °FSunny.8 mph51%30.05 "Hg10 mi
10:56 am64 °FSunny.13 mph45%30.04 "Hg10 mi
9:56 am62 °FSunny.6 mph52%30.03 "Hg10 mi
8:56 am59 °FSunny.7 mph60%30.03 "Hg10 mi
7:56 am56 °FSunny.7 mph70%30.03 "Hg10 mi
6:56 am54 °FSunny.7 mph74%30.02 "Hg10 mi
5:56 am54 °FClear.6 mph74%30.02 "Hg10 mi
4:56 am54 °FClear.6 mph74%30.02 "Hg10 mi
Weather by CustomWeather, © 2017

See weather overviewHow to use our weather pages